Regional Weather Roundup
Issued by NWS

Home | Current Version | Previous Version | Text Only | Print | Product List | Glossary On
Versions: 1 2 3 4 5 6 7 8 9 10 11 12 13 14 15 16 17 18 19 20 21 22 23 24 25 26 27 28 29 30 31 32 33 34 35 36 37 38 39 40 41 42 43 44 45 46 47 48 49
000
ASCA42 TJSJ 080910
RWRPR
PUERTO RICO/U.S. VIRGIN ISLANDS HOURLY WEATHER ROUNDUP
NATIONAL WEATHER SERVICE SAN JUAN PR
500 AM AST MON FEB 08 2016

PRZ001-004-081000-
PUERTO RICO

CITY           SKY/WX    TMP DP  RH WIND       PRES   REMARKS
SAN JUAN LMM   PTCLDY    73  72  94 CALM      30.01S
PONCE          CLEAR     72  70  94 CALM      29.98F
CEIBA          CLOUDY    73  72  94 CALM      30.03S
$$

PRZ006-007-081000-
U.S. VIRGIN ISLANDS

CITY           SKY/WX    TMP DP  RH WIND       PRES   REMARKS
CHARLOTTE AMA  MOCLDY    79  72  78 E10       30.01R
CHRISTIANSTED  PTCLDY    79  72  78 E13       30.01S
$$

HOURLY WEATHER ROUNDUP FOR THE NEWS MEDIA

CITY           SKY/WX    TMP DP  RH WIND       PRES   REMARKS
ORLANDO        CLEAR     44  38  79 CALM      30.04F
NEW YORK       CLOUDY    38  28  67 NE25G33   29.74F WCI  27
NEWARK         CLOUDY    37  27  67 N18G25    29.75F WCI  27
CHICAGO        PTCLDY    30  27  88 W7        29.63F WCI  23
HARTFORD         N/A     36  27  69 MISG      29.79F
BOSTON         CLOUDY    34  26  72 NE29G45   29.90F WCI  20
DALLAS         PTCLDY    46  22  38 NW14      30.29R
PHILADELPHIA   CLOUDY    39  20  46 NE21G28   29.72F WCI  29
LOS ANGELES    CLEAR     57  33  40 E3        30.12S
WASHINGTON DC  MOCLDY    32  21  64 N6        29.78S WCI  26


USA.gov is the U.S. government's official web portal to all federal, state and local government web resources and services.